Location: Laguna de la Cañada del Gallo
(40.3974°N, 5.2096°W)
Time: 00:47:55
(UTC+00:00)

BlueWalker 3 - Visible Passes

Search period start: 21 June 2024 00:00
Search period end: 01 July 2024 00:00
Orbit: 480 x 494 km, 53.2° (Epoch: 20 June)

Date Brightness Start Highest point End Pass type
(mag) Time Alt. Az. Time Alt. Az. Time Alt. Az.
21 Jun 5.4 00:15:12 10° NNW 00:16:33 11° N 00:17:53 10° NNE visible
21 Jun 4.6 01:52:57 10° NNW 01:55:52 21° NNE 01:58:47 10° ENE visible
21 Jun 1.7 03:30:39 10° NW 03:34:23 76° SW 03:38:06 10° SE visible
21 Jun 2.1 20:28:59 10° SW 20:32:43 76° NW 20:36:29 10° NE visible
21 Jun 4.9 22:08:46 10° WNW 22:11:24 18° NNW 22:14:01 10° NNE visible
21 Jun 5.3 23:49:29 10° NNW 23:50:48 11° N 23:52:07 10° NNE visible
22 Jun 4.6 01:27:17 10° NNW 01:30:08 20° NNE 01:32:59 10° ENE visible
22 Jun 1.7 03:04:56 10° NW 03:08:41 82° SW 03:12:25 10° SE visible
22 Jun 4.9 21:42:57 10° WNW 21:45:39 18° NNW 21:48:21 10° NNE visible
22 Jun 5.3 23:23:44 10° NNW 23:25:02 11° N 23:26:21 10° NNE visible
23 Jun 4.6 01:01:37 10° NNW 01:04:24 19° NNE 01:07:11 10° ENE visible
23 Jun 1.7 02:39:14 10° NW 02:42:58 89° SW 02:46:43 10° SE visible
23 Jun 4.8 21:17:09 10° WNW 21:19:54 19° NNW 21:22:40 10° NNE visible
23 Jun 5.2 22:57:58 10° NNW 22:59:17 11° N 23:00:35 10° NNE visible
24 Jun 4.6 00:35:55 10° NNW 00:38:39 19° NNE 00:41:22 10° ENE visible
24 Jun 1.8 02:13:31 10° NW 02:17:16 85° NE 02:18:30 40° SE visible
24 Jun 4.8 20:51:20 10° WNW 20:54:09 20° NNW 20:56:59 10° NNE visible
24 Jun 5.1 22:32:11 10° NNW 22:33:30 11° N 22:34:49 10° NNE visible
25 Jun 4.6 00:10:13 10° NNW 00:12:53 18° NNE 00:15:33 10° ENE visible
25 Jun 2.5 01:47:47 10° NW 01:50:36 48° NW 01:50:36 48° NW visible
25 Jun 4.7 20:25:30 10° WNW 20:28:23 21° NNW 20:31:17 10° NNE visible
25 Jun 5.1 22:06:23 10° NNW 22:07:43 11° N 22:09:03 10° NNE visible
25 Jun 4.6 23:44:32 10° NNW 23:47:07 17° NNE 23:49:42 10° ENE visible
26 Jun 3.3 01:22:04 10° NW 01:24:14 32° NW 01:24:14 32° NW visible
26 Jun 5.0 21:40:34 10° NNW 21:41:56 12° N 21:43:17 10° NNE visible
26 Jun 4.6 23:18:49 10° NNW 23:21:21 17° NNE 23:23:52 10° ENE visible
27 Jun 3.5 00:56:20 10° NW 00:58:22 30° NW 00:58:22 30° NW visible
27 Jun 5.0 21:14:44 10° NNW 21:16:08 12° N 21:17:30 10° NNE visible
27 Jun 4.6 22:53:06 10° NNW 22:55:33 16° NNE 22:58:01 10° ENE visible
28 Jun 3.5 00:30:36 10° NW 00:32:44 31° NNW 00:32:44 31° NNW visible
28 Jun 4.9 20:48:54 10° NNW 20:50:19 12° N 20:51:45 10° NNE visible
28 Jun 4.6 22:27:23 10° NNW 22:29:46 16° NNE 22:32:09 10° ENE visible
29 Jun 3.3 00:04:51 10° NW 00:07:16 35° NNW 00:07:16 35° NNW visible
29 Jun 4.6 22:01:38 10° NNW 22:03:58 15° NNE 22:06:17 10° NE visible
29 Jun 3.0 23:39:06 10° NW 23:41:53 41° NNW 23:41:53 41° NNW visible
30 Jun 4.6 21:35:54 10° NNW 21:38:09 15° NNE 21:40:24 10° NE visible
30 Jun 2.7 23:13:21 10° NW 23:16:34 47° N 23:16:34 47° N visible
